カタログに戻る

CZ-6A DEB

運用中SSO
NORAD 54389·DEBRIS·🇨🇳 China

打ち上げ Nov 11, 2022 から Taiyuan Satellite Launch Center

Loading…

次のパス (今後24時間)

TLE

最新Source: Space-Track

元期: Sep 14, 2026, 14:55 UTC

1 54389U 22151DM  26257.62210525  .00000558  00000-0  42292-3 0  9995
2 54389  98.9297 224.2026 0127546 199.0779 160.5582 13.94251525194738

AllMySatでCZ-6A DEBをリアルタイム追跡

Download on the App Store